Location: Paris
(48.6709°N, 2.3750°E)
Time: 11:48:52
(UTC+02:00)

QB50P2 - Pass Details

Date: 29 June 2022
Orbit: 590 x 605 km, 97.9° (Epoch: 14 August)

Event Time Altitude Azimuth Distance (km) Brightness Sun altitude
Rises 04:55:28 0° 357° (N) 2,859 ? -7.5°
Reaches altitude 10° 04:58:39 10° 331° (NNW) 1,954 ? -7.1°
Maximum altitude 05:00:41 13° 302° (WNW) 1,737 ? -6.9°
Drops below altitude 10° 05:02:44 10° 273° (W) 1,951 ? -6.7°
Enters shadow 05:04:41 - 254° (WSW) 2,459 ? -6.4°
